EW2575 El Paso ES current weather conditions

sailwx.info

Wind from 109 at 10 knots gusting 17

Air temperature 13.3° C
Dewpoint 8.2° C

Last reported at 2019-Mar-19 01:00 UTC.
Time now 2019-Mar-19 01:38 UTC

Location: N 28°39' W 017°53'.
View on Google Maps.

See reports from other nearby stations

  
Tides and Currents Weather Stations Pressure Air Temp Water Temp Dewpoint Dewpoint Depression Visibility Wind Speed Wind Dir Waves Ship Positions
date/time (UTC)wind fromknots sea level pressurealtimeterstation pressurevisibilityair tempwater tempwave heightnotes
2019-Mar-19 01:00 109 10 gusting 17 13.3
2019-Mar-19 00:56 084 7 gusting 12 13.3
2019-Mar-19 00:47 067 5 gusting 10 13.3
2019-Mar-19 00:41 057 6 gusting 11 13.3
2019-Mar-19 00:32 071 6 gusting 12 13.3
2019-Mar-19 00:25 075 5 gusting 12 13.3
2019-Mar-19 00:20 062 6 gusting 12 12.8
2019-Mar-19 00:10 076 3 gusting 11 12.8
2019-Mar-19 00:05 076 6 gusting 11 12.8
2019-Mar-19 00:00 084 6 gusting 10 12.8
2019-Mar-18 23:47 069 6 gusting 16 12.8
2019-Mar-18 23:35 096 5 gusting 10 12.8
2019-Mar-18 23:30 073 5 gusting 10 12.8
2019-Mar-18 23:25 074 3 gusting 12 12.8
2019-Mar-18 23:20 044 1 gusting 12 12.8
2019-Mar-18 23:00 101 12.8
2019-Mar-18 22:50 101 12.8
2019-Mar-18 22:45 101 13.3
2019-Mar-18 22:40 096 2 gusting 9 13.3
2019-Mar-18 22:35 096 5 gusting 14 13.3
2019-Mar-18 22:11 073 7 gusting 18 13.3
2019-Mar-18 22:00 109 8 gusting 18 13.3
2019-Mar-18 21:55 121 11 gusting 16 13.3
2019-Mar-18 21:50 090 7 gusting 19 13.3
2019-Mar-18 21:35 090 10 gusting 15 13.3
2019-Mar-18 21:05 097 7 gusting 17 13.3
2019-Mar-18 21:00 073 10 gusting 17 13.3
2019-Mar-18 20:55 090 8 gusting 16 13.3
2019-Mar-18 20:50 067 7 gusting 17 13.3
2019-Mar-18 20:36 078 7 gusting 17 13.3
2019-Mar-18 20:26 076 10 gusting 15 13.3
2019-Mar-18 20:21 107 9 gusting 19 13.3
2019-Mar-18 20:16 113 8 gusting 19 13.3
2019-Mar-18 20:05 074 9 gusting 17 13.3
2019-Mar-18 20:00 103 11 gusting 17 13.3
2019-Mar-18 19:51 068 11 gusting 17 13.3
2019-Mar-18 19:41 096 10 gusting 17 13.3
2019-Mar-18 19:36 096 11 gusting 17 13.3
2019-Mar-18 19:26 078 11 gusting 20 13.9
2019-Mar-18 19:16 086 9 gusting 19 13.9
2019-Mar-18 19:11 074 9 gusting 18 13.9
2019-Mar-18 19:01 105 9 gusting 18 14.4
2019-Mar-18 18:55 071 10 gusting 19 14.4
2019-Mar-18 18:41 106 11 gusting 19 14.4
2019-Mar-18 18:36 121 10 gusting 19 14.4
2019-Mar-18 18:31 113 10 gusting 16 14.4
2019-Mar-18 18:30 087 10 gusting 16 15.0
2019-Mar-18 18:25 113 8 gusting 13 15.0
2019-Mar-18 18:20 080 8 gusting 13 15.0
2019-Mar-18 18:05 123 8 gusting 13 15.0
2019-Mar-18 18:00 126 7 gusting 13 14.4
2019-Mar-18 17:45 123 8 gusting 14 15.0
2019-Mar-18 17:40 099 10 gusting 14 15.0
2019-Mar-18 17:33 118 9 gusting 16 15.0
2019-Mar-18 17:26 159 9 gusting 16 15.6
2019-Mar-18 17:21 130 11 gusting 16 15.6
2019-Mar-18 17:16 116 9 gusting 15 16.1
2019-Mar-18 17:11 092 8 gusting 14 16.1
2019-Mar-18 17:06 099 7 gusting 13 16.1
2019-Mar-18 17:00 132 7 gusting 13 15.6
2019-Mar-18 16:32 113 9 gusting 17 16.7
2019-Mar-18 16:20 145 7 gusting 15 16.7
2019-Mar-18 16:05 123 9 gusting 15 16.7
2019-Mar-18 15:51 118 8 gusting 15 17.2
2019-Mar-18 15:47 138 8 gusting 16 17.2
2019-Mar-18 15:41 130 8 gusting 19 17.2
2019-Mar-18 15:36 140 11 gusting 19 17.2
2019-Mar-18 15:26 093 13 gusting 19 16.7
2019-Mar-18 15:10 103 10 gusting 17 16.7
2019-Mar-18 15:05 126 12 gusting 19 16.1
2019-Mar-18 14:56 088 8 gusting 15 17.2
2019-Mar-18 14:51 104 11 gusting 18 16.7
2019-Mar-18 14:46 074 10 gusting 18 16.1
2019-Mar-18 14:36 105 10 gusting 19 16.1
2019-Mar-18 14:26 119 13 gusting 19 16.1
2019-Mar-18 14:10 130 13 gusting 21 16.1
2019-Mar-18 14:05 107 13 gusting 20 16.1
2019-Mar-18 14:00 096 9 gusting 19 16.1
2019-Mar-18 13:50 134 12 gusting 19 16.7
2019-Mar-18 13:45 095 9 gusting 19 16.7
2019-Mar-18 13:36 056 9 gusting 20 16.7
2019-Mar-18 13:31 067 9 gusting 18 16.1
2019-Mar-18 13:26 096 10 gusting 26 16.7
2019-Mar-18 13:06 125 13 gusting 22 16.1
2019-Mar-18 13:00 101 12 gusting 22 16.1
2019-Mar-18 12:26 143 13 gusting 21 16.1
2019-Mar-18 12:20 119 6 gusting 18 16.7
2019-Mar-18 12:15 144 12 gusting 18 16.1
2019-Mar-18 12:10 132 9 gusting 19 16.1
2019-Mar-18 12:05 120 10 gusting 16 16.1
2019-Mar-18 12:00 118 10 gusting 16 16.1
2019-Mar-18 11:47 096 11 gusting 19 15.6
2019-Mar-18 11:40 069 10 gusting 17 15.6
2019-Mar-18 11:31 105 10 gusting 19 15.6
2019-Mar-18 11:25 089 11 gusting 19 15.6
2019-Mar-18 11:15 099 11 gusting 21 15.6
2019-Mar-18 11:10 098 12 gusting 22 15.6
2019-Mar-18 11:00 112 13 gusting 22 15.6
2019-Mar-18 10:56 105 10 gusting 24 15.0
2019-Mar-18 10:51 101 12 gusting 24 15.0
2019-Mar-18 10:26 112 8 gusting 18 15.0
2019-Mar-18 10:21 084 10 gusting 17 15.0
2019-Mar-18 10:17 086 7 gusting 18 15.0
2019-Mar-18 10:11 074 10 gusting 18 14.4
2019-Mar-18 10:05 086 8 gusting 15 15.0
2019-Mar-18 09:56 046 6 gusting 13 15.6
2019-Mar-18 09:45 049 5 gusting 16 14.4
2019-Mar-18 09:21 092 6 gusting 14 14.4
2019-Mar-18 09:17 051 14.4
2019-Mar-18 09:11 032 5 gusting 8 13.9
2019-Mar-18 09:05 065 0 gusting 5 13.9
2019-Mar-18 09:00 070 13.9
2019-Mar-18 08:40 115 4 gusting 13 13.3
2019-Mar-18 08:35 111 4 gusting 9 13.3
2019-Mar-18 08:25 117 6 gusting 15 12.8
2019-Mar-18 08:20 115 8 gusting 15 12.8
2019-Mar-18 08:10 046 1 gusting 7 12.2
2019-Mar-18 08:05 089 2 gusting 6 12.2
2019-Mar-18 07:55 090 12.2
2019-Mar-18 07:50 090 12.8
2019-Mar-18 07:40 090 12.2
2019-Mar-18 07:35 090 12.2
2019-Mar-18 07:26 080 1 gusting 5 12.2
2019-Mar-18 07:16 063 12.2
2019-Mar-18 07:11 065 1 gusting 6 12.2
2019-Mar-18 07:06 051 12.8
2019-Mar-18 06:45 082 6 gusting 11 12.8
2019-Mar-18 06:40 087 3 gusting 9 12.8
2019-Mar-18 06:30 080 1 gusting 10 12.8
2019-Mar-18 06:00 067 4 gusting 7 11.7
2019-Mar-18 05:36 063 12.8
2019-Mar-18 05:31 063 12.8
2019-Mar-18 05:21 055 4 gusting 9 12.8
2019-Mar-18 05:17 053 5 gusting 11 12.8
2019-Mar-18 05:05 092 3 gusting 6 12.8
2019-Mar-18 04:51 063 12.8
2019-Mar-18 04:40 071 7 gusting 17 13.3
2019-Mar-18 04:30 055 3 gusting 12 13.3
2019-Mar-18 04:15 095 11 gusting 17 13.3
2019-Mar-18 04:06 055 6 gusting 17 13.3
2019-Mar-18 03:55 049 8 gusting 15 13.3
2019-Mar-18 03:48 097 10 gusting 19 13.3
2019-Mar-18 03:41 084 10 gusting 18 13.3
2019-Mar-18 03:30 063 9 gusting 17 13.3
2019-Mar-18 03:25 087 11 gusting 17 13.3
2019-Mar-18 03:17 097 11 gusting 17 13.3
2019-Mar-18 03:00 083 8 gusting 17 13.3
2019-Mar-18 02:51 082 8 gusting 16 13.3
2019-Mar-18 02:46 075 8 gusting 16 13.3
2019-Mar-18 02:41 074 7 gusting 16 13.3
2019-Mar-18 02:36 063 6 gusting 17 13.3
2019-Mar-18 02:31 071 7 gusting 17 13.3
2019-Mar-18 02:20 043 12.8
2019-Mar-18 02:10 040 12.8
2019-Mar-18 02:06 038 12.8
2019-Mar-18 02:00 038 1 gusting 7 12.8
2019-Mar-18 01:51 057 1 gusting 6 12.8
2019-Mar-18 01:47 055 12.8
2019-Mar-18 01:41 069 1 gusting 6 12.8
2019-Mar-18 01:36 073 0 gusting 7 12.8
2019-Mar-18 01:26 078 3 gusting 6 13.3
2019-Mar-18 01:20 083 0 gusting 6 13.3
2019-Mar-18 01:00 166 13.3
2019-Mar-18 00:55 153 3 gusting 12 13.3
2019-Mar-18 00:50 190 5 gusting 9 13.3
2019-Mar-18 00:41 090 13.3
2019-Mar-18 00:36 090 1 gusting 3 13.3
2019-Mar-18 00:31 090 1 gusting 6 13.3
2019-Mar-18 00:21 090 2 gusting 10 13.3
2019-Mar-18 00:17 090 2 gusting 10 13.9
2019-Mar-18 00:11 083 5 gusting 12 13.3
2019-Mar-18 00:00 075 5 gusting 11 13.3
2019-Mar-17 23:55 105 3 gusting 6 13.3
2019-Mar-17 23:50 109 0 gusting 5 13.3
2019-Mar-17 23:41 109 5 gusting 11 13.3
2019-Mar-17 23:36 107 5 gusting 13 13.3
2019-Mar-17 23:31 146 6 gusting 10 13.9
2019-Mar-17 23:26 145 4 gusting 11 13.9
2019-Mar-17 23:21 126 6 gusting 11 13.3
2019-Mar-17 23:05 138 9 gusting 14 13.3
2019-Mar-17 23:00 130 6 gusting 13 13.3
2019-Mar-17 22:32 129 6 gusting 12 13.3
2019-Mar-17 22:26 120 7 gusting 12 13.9
2019-Mar-17 22:15 098 6 gusting 13 13.9
2019-Mar-17 22:10 121 8 gusting 13 13.9
2019-Mar-17 22:05 087 4 gusting 12 13.9
2019-Mar-17 21:55 096 4 gusting 10 13.9
2019-Mar-17 21:50 111 4 gusting 9 13.9
2019-Mar-17 21:40 098 4 gusting 10 13.9
2019-Mar-17 21:05 074 2 gusting 9 13.9
2019-Mar-17 21:00 077 2 gusting 6 13.9
2019-Mar-17 20:51 077 13.9
2019-Mar-17 20:48 078 13.9
2019-Mar-17 20:26 084 2 gusting 7 13.9
2019-Mar-17 20:21 089 0 gusting 6 13.9
2019-Mar-17 20:10 083 1 gusting 5 13.9
2019-Mar-17 20:05 080 13.9
2019-Mar-17 20:00 076 0 gusting 4 13.9
2019-Mar-17 19:47 340 14.4
2019-Mar-17 19:40 340 14.4
2019-Mar-17 19:32 341 14.4
2019-Mar-17 19:26 345 15.0
2019-Mar-17 19:15 055 14.4
2019-Mar-17 19:10 075 4 gusting 9 14.4
2019-Mar-17 19:00 231 14.4
2019-Mar-17 18:51 231 15.0
2019-Mar-17 18:46 231 15.0
2019-Mar-17 18:26 211 15.6
2019-Mar-17 18:20 211 1 gusting 12 15.6
2019-Mar-17 18:15 123 6 gusting 11 15.6
2019-Mar-17 18:10 116 7 gusting 11 15.6
2019-Mar-17 18:00 120 6 gusting 13 15.6
2019-Mar-17 17:55 119 8 gusting 13 16.1
2019-Mar-17 17:50 165 9 gusting 15 16.1
2019-Mar-17 17:32 134 6 gusting 14 16.7
2019-Mar-17 17:21 135 4 gusting 12 17.2
2019-Mar-17 17:16 135 5 gusting 12 17.2
2019-Mar-17 17:11 140 1 gusting 12 16.7
2019-Mar-17 17:00 232 4 gusting 8 16.7
2019-Mar-17 16:50 178 16.7
2019-Mar-17 16:36 244 1 gusting 8 16.7
2019-Mar-17 16:20 229 0 gusting 7 16.7
2019-Mar-17 16:05 224 4 gusting 9 16.1
2019-Mar-17 15:51 227 4 gusting 12 17.8
2019-Mar-17 15:46 153 1 gusting 8 17.8
2019-Mar-17 15:36 130 5 gusting 16 16.7
2019-Mar-17 15:15 080 6 gusting 13 17.8
2019-Mar-17 15:10 071 4 gusting 16 17.8
2019-Mar-17 14:50 161 1 gusting 13 18.3
2019-Mar-17 14:45 136 2 gusting 13 17.8
2019-Mar-17 14:40 144 8 gusting 18 17.8
2019-Mar-17 14:30 131 4 gusting 15 17.8
2019-Mar-17 14:15 103 6 gusting 15 17.8
2019-Mar-17 14:10 136 8 gusting 14 17.8
2019-Mar-17 14:05 074 7 gusting 14 17.8
2019-Mar-17 14:00 140 8 gusting 13 17.2
2019-Mar-17 13:50 229 16.1
2019-Mar-17 13:41 229 1 gusting 7 16.1
2019-Mar-17 13:36 227 1 gusting 7 16.1
2019-Mar-17 13:11 232 1 gusting 8 16.7
2019-Mar-17 13:06 227 4 gusting 13 17.2
2019-Mar-17 13:00 209 7 gusting 13 17.8
2019-Mar-17 12:55 154 4 gusting 13 17.2
2019-Mar-17 12:50 222 6 gusting 11 17.2
2019-Mar-17 12:41 225 16.1
2019-Mar-17 12:26 217 3 gusting 7 16.7
2019-Mar-17 12:20 327 1 gusting 8 16.7
2019-Mar-17 12:15 199 3 gusting 8 16.7
2019-Mar-17 12:10 211 0 gusting 21 16.7
2019-Mar-17 11:55 111 3 gusting 9 16.1
2019-Mar-17 11:35 236 3 gusting 6 15.6
2019-Mar-17 11:30 237 2 gusting 6 15.6
2019-Mar-17 11:25 238 1 gusting 6 15.6
2019-Mar-17 11:11 236 5 gusting 9 15.6
2019-Mar-17 11:00 225 1 gusting 7 16.1
2019-Mar-17 10:56 249 1 gusting 7 16.1
2019-Mar-17 10:51 221 1 gusting 13 16.7
2019-Mar-17 10:47 167 5 gusting 13 16.7
2019-Mar-17 10:26 071 9 gusting 17 16.1
2019-Mar-17 10:21 089 10 gusting 17 16.1
2019-Mar-17 10:17 094 6 gusting 14 16.1
2019-Mar-17 10:11 079 7 gusting 14 16.1
2019-Mar-17 10:06 089 3 gusting 10 15.6
2019-Mar-17 09:55 091 3 gusting 8 15.0
2019-Mar-17 09:41 092 1 gusting 7 15.0
2019-Mar-17 09:20 092 15.6
2019-Mar-17 09:11 092 15.0
2019-Mar-17 09:06 092 15.0
2019-Mar-17 08:51 092 14.4
2019-Mar-17 08:47 092 13.9
2019-Mar-17 08:41 092 13.9
2019-Mar-17 08:36 092 13.9
2019-Mar-17 08:20 092 13.3
2019-Mar-17 08:15 092 13.3
2019-Mar-17 08:06 092 13.3
2019-Mar-17 08:00 092 13.3
2019-Mar-17 07:51 092 12.8
2019-Mar-17 07:47 092 1 gusting 5 12.8
2019-Mar-17 07:40 092 2 gusting 5 12.8
2019-Mar-17 07:32 092 12.8
2019-Mar-17 07:26 092 1 gusting 3 12.8
2019-Mar-17 07:21 092 13.3
2019-Mar-17 07:15 092 13.3
2019-Mar-17 07:06 092 12.8
2019-Mar-17 07:00 092 13.3
2019-Mar-17 06:51 092 13.9
2019-Mar-17 06:45 092 13.9
2019-Mar-17 06:40 092 13.9
2019-Mar-17 06:32 092 13.9
2019-Mar-17 06:26 092 13.9
2019-Mar-17 06:21 092 1 gusting 6 13.9
2019-Mar-17 06:11 092 1 gusting 5 13.9
2019-Mar-17 06:06 092 13.9
2019-Mar-17 06:00 092 1 gusting 6 14.4
2019-Mar-17 05:45 092 2 gusting 8 14.4
2019-Mar-17 05:40 092 5 gusting 9 14.4
2019-Mar-17 05:35 092 6 gusting 9 14.4
2019-Mar-17 05:30 092 5 gusting 7 14.4
2019-Mar-17 05:06 100 7 gusting 10 14.4
2019-Mar-17 05:00 104 7 gusting 10 14.4
2019-Mar-17 04:47 108 6 gusting 9 15.0
2019-Mar-17 04:36 109 6 gusting 9 15.0
2019-Mar-17 04:34 112 6 gusting 9 15.0
2019-Mar-17 04:26 115 6 gusting 9 15.0
2019-Mar-17 04:15 118 3 gusting 6 13.9
2019-Mar-17 04:10 118 13.3
2019-Mar-17 04:05 118 13.9
2019-Mar-17 04:00 118 13.9
2019-Mar-17 03:51 118 1 gusting 6 13.9
2019-Mar-17 03:45 118 13.9
2019-Mar-17 03:33 118 6 gusting 9 14.4
2019-Mar-17 03:26 119 6 gusting 9 14.4
2019-Mar-17 03:21 125 6 gusting 9 14.4
2019-Mar-17 03:10 136 6 gusting 8 15.0
2019-Mar-17 03:05 138 5 gusting 8 15.0
2019-Mar-17 03:00 145 5 gusting 7 14.4
2019-Mar-17 02:48 154 13.9
2019-Mar-17 02:41 155 13.9
2019-Mar-17 02:36 155 13.3
2019-Mar-17 02:26 155 13.9
2019-Mar-17 02:20 155 13.9
2019-Mar-17 02:15 155 13.9
2019-Mar-17 02:00 155 14.4
2019-Mar-17 01:51 155 15.0
2019-Mar-17 01:45 154 15.0
2019-Mar-17 01:40 155 4 gusting 7 15.0
2019-Mar-17 01:35 156 5 gusting 8 15.0
2019-Mar-17 01:30 159 4 gusting 8 15.0
2019-Mar-17 01:25 163 2 gusting 6 15.0
2019-Mar-17 01:20 163 1 gusting 5 15.0
2019-Mar-17 01:15 163 0 gusting 5 14.4
2019-Mar-17 01:10 163 14.4
2019-Mar-17 01:05 163 14.4
2019-Mar-17 01:00 163 14.4